KLM268 SMJP-EHAM

Flight info

Callsign KLM268
Flight time N/A
Altitude 35000
Route TODOL DCT BUXEX DCT VALOV DCT 13N050W DCT QUETN/M083F350 DCT 25N040W 30N035W/M083F370 35N030W 42N020W 45N015W DCT TAMEL DCT EVBAK DCT GAPLI/N0472F370 DCT GAJIT DCT ENHAQ M197 REDFA
Aircraft B77W/H-SDE1E2E3FGHIJ2J3J4J5M1RWXY/LB1D1

Departure

Time 2026-04-24 22:01
Airport Johan Adolf Pengel International Airport (SMJP)

Arrival

Time N/A
Airport Amsterdam Airport Schiphol (EHAM)
Time Latitude Longitude Altitude Speed Heading
2026-04-24 21:24 5.45585 -55.19761 66 ft 0 kts 84°
2026-04-24 21:55 5.45560 -55.19729 59 ft 0 kts 172°
2026-04-24 21:55 5.45494 -55.19733 64 ft 19 kts 197°
2026-04-24 21:55 5.45439 -55.19868 58 ft 0 kts 279°
2026-04-24 21:55 5.45444 -55.19902 62 ft 31 kts 274°
2026-04-24 21:56 5.45446 -55.20167 66 ft 33 kts 269°
2026-04-24 21:56 5.45428 -55.20319 56 ft 13 kts 233°
2026-04-24 21:56 5.45371 -55.20344 57 ft 1 kts 191°
2026-04-24 21:59 5.45362 -55.20345 54 ft 3 kts 184°
2026-04-24 21:59 5.45343 -55.20345 59 ft 0 kts 175°
2026-04-24 22:00 5.45331 -55.20343 56 ft 0 kts 171°
2026-04-24 22:00 5.45308 -55.20333 55 ft 13 kts 151°
2026-04-24 22:00 5.45274 -55.20187 57 ft 59 kts 89°
2026-04-24 22:00 5.45284 -55.19409 66 ft 162 kts 89°
2026-04-24 22:01 5.45333 -55.18101 751 ft 201 kts 79°
2026-04-24 22:01 5.46075 -55.16931 1831 ft 209 kts 38°
2026-04-24 22:01 5.47318 -55.16116 2945 ft 221 kts 31°
2026-04-24 22:01 5.48694 -55.15256 3948 ft 243 kts 31°
2026-04-24 22:02 5.50183 -55.14336 5034 ft 259 kts 31°
2026-04-24 22:02 5.51775 -55.13359 6117 ft 275 kts 31°
2026-04-24 22:02 5.53435 -55.12350 7496 ft 283 kts 31°
2026-04-24 22:02 5.55146 -55.11314 8553 ft 291 kts 31°
2026-04-24 22:03 5.56898 -55.10257 9544 ft 299 kts 31°
2026-04-24 22:03 5.58679 -55.09184 10803 ft 307 kts 31°
2026-04-24 22:03 5.60533 -55.08068 12197 ft 311 kts 31°
2026-04-24 22:03 5.62405 -55.06941 13497 ft 317 kts 31°
2026-04-24 22:04 5.64317 -55.05792 14639 ft 328 kts 31°
2026-04-24 22:04 5.66372 -55.04557 15290 ft 351 kts 31°
2026-04-24 22:04 5.68532 -55.03259 15891 ft 372 kts 31°
2026-04-24 22:04 5.70807 -55.01891 16421 ft 390 kts 31°
2026-04-24 22:05 5.73139 -55.00489 17170 ft 400 kts 31°
2026-04-24 22:05 5.75581 -54.99020 17954 ft 408 kts 31°
2026-04-24 22:05 5.78007 -54.97560 18693 ft 415 kts 31°
2026-04-24 22:05 5.80500 -54.96061 19448 ft 420 kts 31°
2026-04-24 22:06 5.83024 -54.94542 20174 ft 425 kts 31°
2026-04-24 22:06 5.85574 -54.93008 20860 ft 430 kts 31°
2026-04-24 22:06 5.88153 -54.91456 21514 ft 434 kts 31°
2026-04-24 22:06 5.90764 -54.89885 22139 ft 438 kts 31°
2026-04-24 22:07 5.93389 -54.88305 22716 ft 442 kts 31°
2026-04-24 22:07 5.96007 -54.86729 23246 ft 446 kts 31°
2026-04-24 22:07 5.98713 -54.85100 23784 ft 449 kts 31°
2026-04-24 22:07 6.01388 -54.83456 24283 ft 453 kts 34°
2026-04-24 22:08 6.03825 -54.81423 24728 ft 457 kts 46°
2026-04-24 22:08 6.05847 -54.79017 25150 ft 459 kts 51°
2026-04-24 22:08 6.07868 -54.76513 25528 ft 463 kts 50°
2026-04-24 22:08 6.09945 -54.74023 25932 ft 466 kts 49°
2026-04-24 22:09 6.12066 -54.71548 26321 ft 468 kts 49°
2026-04-24 22:09 6.14224 -54.69074 26707 ft 471 kts 48°
2026-04-24 22:09 6.16399 -54.66605 27067 ft 473 kts 48°
2026-04-24 22:09 6.18597 -54.64118 27407 ft 476 kts 48°
2026-04-24 22:10 6.20053 -54.62472 27617 ft 478 kts 48°
2026-04-24 22:10 6.22266 -54.59967 27942 ft 480 kts 48°
2026-04-24 22:10 6.24484 -54.57454 28235 ft 482 kts 48°
2026-04-24 22:10 6.27435 -54.54107 28646 ft 483 kts 48°
2026-04-24 22:11 6.29667 -54.51573 28945 ft 484 kts 48°
2026-04-24 22:11 6.31900 -54.49035 29244 ft 485 kts 48°
2026-04-24 22:11 6.33413 -54.47317 29446 ft 485 kts 48°
2026-04-24 22:11 6.35625 -54.44803 29754 ft 485 kts 48°
2026-04-24 22:12 6.37862 -54.42260 30041 ft 485 kts 48°
2026-04-24 22:12 6.40081 -54.39738 30590 ft 478 kts 48°
2026-04-24 22:12 6.42281 -54.37238 31169 ft 470 kts 48°
2026-04-24 22:12 6.44440 -54.34783 31700 ft 464 kts 48°
2026-04-24 22:13 6.46566 -54.32366 32230 ft 458 kts 48°
2026-04-24 22:13 6.48661 -54.29984 32746 ft 452 kts 48°
2026-04-24 22:13 6.50725 -54.27637 33267 ft 446 kts 48°
2026-04-24 22:13 6.52759 -54.25323 33746 ft 440 kts 48°
2026-04-24 22:14 6.54766 -54.23039 34238 ft 434 kts 48°
2026-04-24 22:14 6.56720 -54.20817 34634 ft 430 kts 48°
2026-04-24 22:14 6.58704 -54.18559 34859 ft 430 kts 48°
2026-04-24 22:14 6.60687 -54.16303 35036 ft 433 kts 48°
2026-04-24 22:15 6.62703 -54.14008 35010 ft 440 kts 48°
2026-04-24 22:15 6.66818 -54.09322 35022 ft 453 kts 48°
2026-04-24 22:16 6.71061 -54.04489 35021 ft 466 kts 48°
2026-04-24 22:16 6.75408 -53.99550 35018 ft 477 kts 47°
2026-04-24 22:17 6.80095 -53.94724 35009 ft 486 kts 44°
2026-04-24 22:17 6.84953 -53.89978 35014 ft 494 kts 44°
2026-04-24 22:18 6.89904 -53.85110 35009 ft 500 kts 44°
2026-04-24 22:18 6.94870 -53.80168 35012 ft 505 kts 45°
2026-04-24 22:19 6.99870 -53.75165 35009 ft 508 kts 45°
2026-04-24 22:19 7.04888 -53.70140 34998 ft 509 kts 45°
2026-04-24 22:20 7.09920 -53.65103 35002 ft 510 kts 45°
2026-04-24 22:20 7.14950 -53.60068 35000 ft 509 kts 45°
2026-04-24 22:21 7.19971 -53.55042 35001 ft 508 kts 45°
2026-04-24 22:21 7.24983 -53.50023 35004 ft 507 kts 45°
2026-04-24 22:22 7.29891 -53.45106 35000 ft 491 kts 45°
2026-04-24 22:22 7.34739 -53.40247 35005 ft 494 kts 45°
2026-04-24 22:23 7.39641 -53.35333 35010 ft 500 kts 45°
2026-04-24 22:23 7.44602 -53.30358 35013 ft 504 kts 45°
2026-04-24 22:24 7.49542 -53.25402 35588 ft 494 kts 45°
2026-04-24 22:24 7.51948 -53.22987 36371 ft 479 kts 45°
2026-04-24 22:24 7.54253 -53.20674 37170 ft 466 kts 45°
2026-04-24 22:24 7.56513 -53.18406 37966 ft 452 kts 45°
2026-04-24 22:25 7.58713 -53.16197 38467 ft 447 kts 45°
2026-04-24 22:25 7.63179 -53.11713 38468 ft 456 kts 45°
2026-04-24 22:26 7.67701 -53.07171 38528 ft 461 kts 45°
2026-04-24 22:26 7.72269 -53.02582 38591 ft 465 kts 45°
2026-04-24 22:27 7.76874 -52.97954 38642 ft 469 kts 45°
2026-04-24 22:27 7.81514 -52.93288 38710 ft 473 kts 45°
2026-04-24 22:28 7.86162 -52.88613 38801 ft 475 kts 45°
2026-04-24 22:28 7.88489 -52.86272 39059 ft 471 kts 45°
2026-04-24 22:28 7.90827 -52.83920 38987 ft 475 kts 45°
2026-04-24 22:29 7.97881 -52.76820 39008 ft 480 kts 45°
2026-04-24 22:29 8.02625 -52.72043 39006 ft 483 kts 45°
2026-04-24 22:30 8.07394 -52.67239 39009 ft 486 kts 45°
2026-04-24 22:30 8.12194 -52.62402 39005 ft 488 kts 45°
2026-04-24 22:31 8.16985 -52.57573 39010 ft 491 kts 45°
2026-04-24 22:31 8.21821 -52.52696 39004 ft 493 kts 45°
2026-04-24 22:32 8.26676 -52.47798 39004 ft 494 kts 45°
2026-04-24 22:32 8.31550 -52.42880 39001 ft 496 kts 45°
2026-04-24 22:33 8.36438 -52.37946 38999 ft 497 kts 45°
2026-04-24 22:33 8.41330 -52.33005 38999 ft 498 kts 45°
2026-04-24 22:34 8.46226 -52.28059 38999 ft 497 kts 45°
2026-04-24 22:34 8.51085 -52.23148 38997 ft 497 kts 45°
2026-04-24 22:35 8.55972 -52.18207 39002 ft 497 kts 45°
2026-04-24 22:35 8.60855 -52.13268 39005 ft 496 kts 45°
2026-04-24 22:36 8.65736 -52.08329 39002 ft 496 kts 45°
2026-04-24 22:36 8.70620 -52.03386 39000 ft 496 kts 45°
2026-04-24 22:37 8.75472 -51.98473 39001 ft 496 kts 45°
2026-04-24 22:37 8.80347 -51.93534 38998 ft 496 kts 45°
2026-04-24 22:38 8.85228 -51.88588 39005 ft 496 kts 45°
2026-04-24 22:38 8.90106 -51.83642 38998 ft 496 kts 45°
2026-04-24 22:39 8.94990 -51.78689 38998 ft 496 kts 45°
2026-04-24 22:39 8.99867 -51.73740 39000 ft 497 kts 45°
2026-04-24 22:40 9.04745 -51.68788 39001 ft 497 kts 45°
2026-04-24 22:40 9.09587 -51.63872 39001 ft 497 kts 45°
2026-04-24 22:41 9.14464 -51.58918 39000 ft 497 kts 45°
2026-04-24 22:41 9.19344 -51.53958 38998 ft 497 kts 45°
2026-04-24 22:42 9.24221 -51.48999 39001 ft 497 kts 45°
2026-04-24 22:42 9.29109 -51.44028 38998 ft 497 kts 45°
2026-04-24 22:43 9.33958 -51.39093 39000 ft 497 kts 45°
2026-04-24 22:43 9.38838 -51.34125 38999 ft 497 kts 45°
2026-04-24 22:44 9.43716 -51.29156 39005 ft 497 kts 45°
2026-04-24 22:44 9.48594 -51.24186 39000 ft 497 kts 45°
2026-04-24 22:45 9.53471 -51.19215 38998 ft 497 kts 45°
2026-04-24 22:45 9.58356 -51.14232 39001 ft 497 kts 45°
2026-04-24 22:46 9.63190 -51.09299 39005 ft 497 kts 45°
2026-04-24 22:46 9.68376 -51.04713 38993 ft 494 kts 28°
2026-04-24 22:47 9.71529 -51.03362 39002 ft 493 kts 15°
2026-04-24 22:47 9.74858 -51.02595 39013 ft 490 kts 13°
2026-04-24 22:47 9.81461 -51.00760 39009 ft 493 kts 17°
2026-04-24 22:48 9.88009 -50.98651 39002 ft 494 kts 18°
2026-04-24 22:48 9.94580 -50.96529 39008 ft 496 kts 17°
2026-04-24 22:49 10.01139 -50.94456 39000 ft 497 kts 17°
2026-04-24 22:49 10.07761 -50.92385 39009 ft 498 kts 17°
2026-04-24 22:50 10.14395 -50.90314 39003 ft 498 kts 17°
2026-04-24 22:50 10.21035 -50.88237 38998 ft 499 kts 17°
2026-04-24 22:51 10.27667 -50.86160 39001 ft 498 kts 17°
2026-04-24 22:51 10.34291 -50.84084 39005 ft 498 kts 17°
2026-04-24 22:52 10.40915 -50.82008 39001 ft 497 kts 17°
2026-04-24 22:52 10.47482 -50.79948 39004 ft 497 kts 17°
2026-04-24 22:53 10.54091 -50.77875 38997 ft 496 kts 17°
2026-04-24 22:53 10.60698 -50.75801 39006 ft 496 kts 17°
2026-04-24 22:54 10.67285 -50.73732 38998 ft 496 kts 17°
2026-04-24 22:54 10.73884 -50.71659 39000 ft 495 kts 17°
2026-04-24 22:55 10.80475 -50.69588 39004 ft 495 kts 17°
2026-04-24 22:55 10.87057 -50.67518 39000 ft 495 kts 17°
2026-04-24 22:56 10.93599 -50.65460 38998 ft 495 kts 17°
2026-04-24 22:56 11.00177 -50.63389 39000 ft 495 kts 17°
2026-04-24 22:57 11.06769 -50.61314 39007 ft 495 kts 17°
2026-04-24 22:57 11.13350 -50.59240 39000 ft 495 kts 17°
2026-04-24 22:58 11.19935 -50.57165 39006 ft 495 kts 17°
2026-04-24 22:58 11.26536 -50.55083 39006 ft 496 kts 17°
2026-04-24 22:59 11.33123 -50.53005 38998 ft 496 kts 17°
2026-04-24 23:00 11.43016 -50.49882 39009 ft 496 kts 17°
2026-04-24 23:00 11.49573 -50.47811 39002 ft 496 kts 17°
2026-04-24 23:01 11.56172 -50.45725 38998 ft 496 kts 17°
2026-04-24 23:01 11.61656 -50.43991 38998 ft 496 kts 17°
2026-04-24 23:02 11.68247 -50.41906 39003 ft 496 kts 17°
2026-04-24 23:02 11.74858 -50.39814 39005 ft 496 kts 17°
2026-04-24 23:03 11.81455 -50.37725 38999 ft 496 kts 17°
2026-04-24 23:03 11.88053 -50.35635 38999 ft 496 kts 17°
2026-04-24 23:04 11.94647 -50.33545 39000 ft 496 kts 17°
2026-04-24 23:04 12.01247 -50.31452 39000 ft 496 kts 17°
2026-04-24 23:05 12.07845 -50.29358 38998 ft 496 kts 17°
2026-04-24 23:05 12.14400 -50.27277 39001 ft 496 kts 17°
2026-04-24 23:06 12.20993 -50.25183 38999 ft 496 kts 17°
2026-04-24 23:06 12.27583 -50.23089 38999 ft 496 kts 17°
2026-04-24 23:07 12.34186 -50.20990 38999 ft 496 kts 17°
2026-04-24 23:07 12.40786 -50.18890 38998 ft 496 kts 17°
2026-04-24 23:08 12.47382 -50.16791 38999 ft 496 kts 17°
2026-04-24 23:08 12.53974 -50.14692 39004 ft 496 kts 17°
2026-04-24 23:09 12.60559 -50.12593 39001 ft 496 kts 17°
2026-04-24 23:09 12.67156 -50.10490 38999 ft 496 kts 17°
2026-04-24 23:10 12.73742 -50.08389 39004 ft 496 kts 17°
2026-04-24 23:10 12.80294 -50.06298 39004 ft 496 kts 17°
2026-04-24 23:11 12.86884 -50.04194 39000 ft 496 kts 17°
2026-04-24 23:11 12.93477 -50.02086 39005 ft 496 kts 17°
2026-04-24 23:12 13.00033 -49.99882 38992 ft 496 kts 24°
2026-04-24 23:12 13.03034 -49.98147 38996 ft 495 kts 36°
2026-04-24 23:12 13.05669 -49.95884 39006 ft 493 kts 41°
2026-04-24 23:13 13.10967 -49.91391 38998 ft 494 kts 38°
2026-04-24 23:13 13.16423 -49.87147 39004 ft 495 kts 37°
2026-04-24 23:14 13.21949 -49.82911 39001 ft 496 kts 37°
2026-04-24 23:14 13.27476 -49.78640 39006 ft 497 kts 37°
2026-04-24 23:15 13.32995 -49.74345 39007 ft 498 kts 37°
2026-04-24 23:15 13.38507 -49.70045 38998 ft 498 kts 37°
2026-04-24 23:16 13.44029 -49.65736 39001 ft 498 kts 37°
2026-04-24 23:16 13.49548 -49.61428 39008 ft 498 kts 37°
2026-04-24 23:17 13.55037 -49.57142 38997 ft 498 kts 37°
2026-04-24 23:17 13.60560 -49.52826 39007 ft 498 kts 37°
2026-04-24 23:18 13.66086 -49.48507 39005 ft 498 kts 37°
2026-04-24 23:18 13.71600 -49.44193 38999 ft 497 kts 37°
2026-04-24 23:19 13.77107 -49.39882 39004 ft 497 kts 37°
2026-04-24 23:19 13.82568 -49.35605 38999 ft 497 kts 37°
2026-04-24 23:20 13.88072 -49.31291 38999 ft 497 kts 37°
2026-04-24 23:20 13.93565 -49.26984 39001 ft 496 kts 37°
2026-04-24 23:21 13.99057 -49.22675 39011 ft 496 kts 37°
2026-04-24 23:21 14.04550 -49.18361 39010 ft 496 kts 37°
2026-04-24 23:22 14.10048 -49.14042 38999 ft 496 kts 37°
2026-04-24 23:22 14.15534 -49.09729 38997 ft 496 kts 37°
2026-04-24 23:23 14.21028 -49.05407 39000 ft 496 kts 37°
2026-04-24 23:23 14.26482 -49.01115 38999 ft 496 kts 37°
2026-04-24 23:24 14.31978 -48.96786 38997 ft 496 kts 37°
2026-04-24 23:24 14.37468 -48.92459 38999 ft 496 kts 37°
2026-04-24 23:25 14.42951 -48.88135 39004 ft 496 kts 37°
2026-04-24 23:25 14.48441 -48.83803 39000 ft 496 kts 37°
2026-04-24 23:26 14.53934 -48.79466 39007 ft 497 kts 37°
2026-04-24 23:26 14.59419 -48.75132 39001 ft 497 kts 37°
2026-04-24 23:27 14.64871 -48.70821 39009 ft 497 kts 37°
2026-04-24 23:27 14.70359 -48.66479 39000 ft 497 kts 37°
2026-04-24 23:28 14.75848 -48.62134 39002 ft 497 kts 37°
2026-04-24 23:28 14.81306 -48.57811 39000 ft 497 kts 37°
2026-04-24 23:29 14.86827 -48.53434 39005 ft 497 kts 37°
2026-04-24 23:29 14.92309 -48.49086 38999 ft 497 kts 37°
2026-04-24 23:30 14.97762 -48.44758 38997 ft 497 kts 37°
2026-04-24 23:30 15.03241 -48.40406 39001 ft 497 kts 37°
2026-04-24 23:31 15.08731 -48.36042 39005 ft 497 kts 37°
2026-04-24 23:31 15.14207 -48.31687 38999 ft 497 kts 37°
2026-04-24 23:32 15.19689 -48.27324 39004 ft 497 kts 37°
2026-04-24 23:32 15.25168 -48.22961 38997 ft 497 kts 37°
2026-04-24 23:33 15.30650 -48.18592 38999 ft 497 kts 37°
2026-04-24 23:33 15.36096 -48.14249 39005 ft 497 kts 37°
2026-04-24 23:34 15.41572 -48.09880 39005 ft 497 kts 37°
2026-04-24 23:34 15.47048 -48.05506 38999 ft 497 kts 37°
2026-04-24 23:35 15.52528 -48.01127 38997 ft 497 kts 37°
2026-04-24 23:35 15.58000 -47.96752 39004 ft 497 kts 37°
2026-04-24 23:36 15.63436 -47.92402 39005 ft 497 kts 37°
2026-04-24 23:36 15.68910 -47.88019 39000 ft 497 kts 37°
2026-04-24 23:37 15.74385 -47.83631 39003 ft 497 kts 37°
2026-04-24 23:37 15.82592 -47.77049 39005 ft 497 kts 37°
2026-04-24 23:38 15.88065 -47.72656 38999 ft 497 kts 37°
2026-04-24 23:38 15.93537 -47.68260 38998 ft 497 kts 37°
2026-04-24 23:39 15.98972 -47.63892 39005 ft 497 kts 37°
2026-04-24 23:39 16.04440 -47.59493 39005 ft 497 kts 37°
2026-04-24 23:40 16.09909 -47.55091 38997 ft 497 kts 37°
2026-04-24 23:40 16.15374 -47.50688 39003 ft 497 kts 37°
2026-04-24 23:41 16.20835 -47.46285 38997 ft 497 kts 38°
2026-04-24 23:41 16.26301 -47.41876 38999 ft 497 kts 38°
2026-04-24 23:42 16.31728 -47.37494 39000 ft 497 kts 38°
2026-04-24 23:42 16.37190 -47.33082 39005 ft 497 kts 38°
2026-04-24 23:43 16.42649 -47.28668 39003 ft 497 kts 38°
2026-04-24 23:43 16.48106 -47.24253 39000 ft 497 kts 38°
2026-04-24 23:44 16.53568 -47.19831 39011 ft 497 kts 38°
2026-04-24 23:44 16.59029 -47.15406 38997 ft 497 kts 38°
2026-04-24 23:45 16.64490 -47.10978 39000 ft 497 kts 38°
2026-04-24 23:45 16.69909 -47.06581 39001 ft 497 kts 38°
2026-04-24 23:46 16.75363 -47.02151 39000 ft 497 kts 38°
2026-04-24 23:46 16.80817 -46.97719 39001 ft 497 kts 38°
2026-04-24 23:47 16.86274 -46.93281 39000 ft 497 kts 38°
2026-04-24 23:47 16.91727 -46.88842 38998 ft 497 kts 38°
2026-04-24 23:48 16.97179 -46.84402 39001 ft 497 kts 38°
2026-04-24 23:48 17.01712 -46.80707 39008 ft 497 kts 38°
2026-04-24 23:49 17.07166 -46.76259 39004 ft 497 kts 38°
2026-04-24 23:49 17.13495 -46.71092 39000 ft 497 kts 38°
2026-04-24 23:50 17.18055 -46.67367 39001 ft 497 kts 38°
2026-04-24 23:50 17.23473 -46.62937 39003 ft 497 kts 38°
2026-04-24 23:51 17.28918 -46.58483 39000 ft 497 kts 38°
2026-04-24 23:51 17.34360 -46.54027 39002 ft 497 kts 38°
2026-04-24 23:52 17.39804 -46.49566 39001 ft 497 kts 38°
2026-04-24 23:52 17.45253 -46.45098 38999 ft 497 kts 38°
2026-04-24 23:53 17.50701 -46.40626 38998 ft 497 kts 38°
2026-04-24 23:53 17.56122 -46.36174 38997 ft 497 kts 38°
2026-04-24 23:54 17.61574 -46.31692 38997 ft 497 kts 38°
2026-04-24 23:54 17.67011 -46.27220 39005 ft 497 kts 38°
2026-04-24 23:55 17.72445 -46.22746 39001 ft 497 kts 38°
2026-04-24 23:55 17.77888 -46.18261 39000 ft 497 kts 38°
2026-04-24 23:56 17.83321 -46.13780 38998 ft 497 kts 38°
2026-04-24 23:56 17.88758 -46.09293 39004 ft 497 kts 38°
2026-04-24 23:57 17.94151 -46.04837 39012 ft 497 kts 38°
2026-04-24 23:57 17.99583 -46.00348 39004 ft 497 kts 38°
2026-04-24 23:58 18.05046 -45.95892 38999 ft 497 kts 37°
2026-04-24 23:58 18.10536 -45.91475 39006 ft 497 kts 37°
2026-04-24 23:59 18.16020 -45.87057 38999 ft 497 kts 37°
2026-04-24 23:59 18.21504 -45.82624 39003 ft 497 kts 37°
2026-04-25 00:00 18.26979 -45.78188 39004 ft 497 kts 37°
2026-04-25 00:00 18.32461 -45.73742 39005 ft 497 kts 37°
2026-04-25 00:01 18.37900 -45.69329 39002 ft 497 kts 37°
2026-04-25 00:01 18.43380 -45.64879 39003 ft 497 kts 37°
2026-04-25 00:02 18.48847 -45.60435 38999 ft 497 kts 37°
2026-04-25 00:02 18.54321 -45.55983 38999 ft 497 kts 37°
2026-04-25 00:03 18.59791 -45.51529 38999 ft 497 kts 37°
2026-04-25 00:03 18.65269 -45.47066 39000 ft 497 kts 37°
2026-04-25 00:04 18.70737 -45.42607 39001 ft 497 kts 37°
2026-04-25 00:04 18.76170 -45.38173 39004 ft 497 kts 37°
2026-04-25 00:05 18.81641 -45.33704 39004 ft 497 kts 37°
2026-04-25 00:05 18.87105 -45.29237 39001 ft 497 kts 37°
2026-04-25 00:06 18.92564 -45.24771 39004 ft 497 kts 37°
2026-04-25 00:06 18.98028 -45.20296 39000 ft 497 kts 38°
2026-04-25 00:07 19.03490 -45.15819 39000 ft 497 kts 38°
2026-04-25 00:07 19.08953 -45.11338 38997 ft 497 kts 38°
2026-04-25 00:08 19.14412 -45.06856 38999 ft 497 kts 38°
2026-04-25 00:08 19.19871 -45.02370 38997 ft 497 kts 38°
2026-04-25 00:09 19.25291 -44.97913 38997 ft 497 kts 38°
2026-04-25 00:09 19.30750 -44.93419 39004 ft 497 kts 38°
2026-04-25 00:10 19.36202 -44.88928 39005 ft 497 kts 38°
2026-04-25 00:10 19.41658 -44.84428 39005 ft 497 kts 38°
2026-04-25 00:11 19.47110 -44.79929 38999 ft 497 kts 38°
2026-04-25 00:11 19.52563 -44.75425 39001 ft 497 kts 38°
2026-04-25 00:12 19.58014 -44.70918 39005 ft 497 kts 38°
2026-04-25 00:12 19.63456 -44.66414 39000 ft 497 kts 38°
2026-04-25 00:13 19.68908 -44.61900 39005 ft 497 kts 38°
2026-04-25 00:13 19.74359 -44.57381 39005 ft 497 kts 38°
2026-04-25 00:14 19.79767 -44.52894 39001 ft 497 kts 38°
2026-04-25 00:14 19.85206 -44.48378 38999 ft 497 kts 38°
2026-04-25 00:15 19.90654 -44.43849 38997 ft 497 kts 38°
2026-04-25 00:15 19.96101 -44.39318 39002 ft 497 kts 38°
2026-04-25 00:16 20.01545 -44.34785 39004 ft 497 kts 38°
2026-04-25 00:16 20.06984 -44.30252 39001 ft 497 kts 38°
2026-04-25 00:17 20.12427 -44.25711 39000 ft 497 kts 38°
2026-04-25 00:17 20.17859 -44.21176 39005 ft 497 kts 38°
2026-04-25 00:18 20.23273 -44.16652 39000 ft 497 kts 38°
2026-04-25 00:18 20.28714 -44.12100 38997 ft 497 kts 38°
2026-04-25 00:19 20.34159 -44.07542 39001 ft 497 kts 38°
2026-04-25 00:19 20.39592 -44.02989 39000 ft 497 kts 38°
2026-04-25 00:20 20.45023 -43.98433 38997 ft 497 kts 38°
2026-04-25 00:20 20.50457 -43.93871 39000 ft 497 kts 38°
2026-04-25 00:21 20.55845 -43.89344 39010 ft 497 kts 38°
2026-04-25 00:21 20.61312 -43.84746 39004 ft 497 kts 38°
2026-04-25 00:22 20.66703 -43.80207 39005 ft 497 kts 38°
2026-04-25 00:22 20.72130 -43.75634 38997 ft 497 kts 38°
2026-04-25 00:23 20.77557 -43.71056 39006 ft 497 kts 38°
2026-04-25 00:23 20.82981 -43.66477 39005 ft 497 kts 38°
2026-04-25 00:24 20.88400 -43.61897 39001 ft 497 kts 38°
2026-04-25 00:24 20.93819 -43.57314 38999 ft 497 kts 38°
2026-04-25 00:25 20.99236 -43.52728 38997 ft 497 kts 38°
2026-04-25 00:25 21.04661 -43.48130 39000 ft 497 kts 38°
2026-04-25 00:26 21.10038 -43.43569 38997 ft 497 kts 38°
2026-04-25 00:26 21.15458 -43.38967 39004 ft 497 kts 38°
2026-04-25 00:27 21.20875 -43.34363 38999 ft 497 kts 38°
2026-04-25 00:27 21.26288 -43.29758 38999 ft 497 kts 38°
2026-04-25 00:28 21.31705 -43.25145 38997 ft 497 kts 38°
2026-04-25 00:28 21.37119 -43.20530 39005 ft 497 kts 38°
2026-04-25 00:29 21.42500 -43.15939 39001 ft 497 kts 38°
2026-04-25 00:29 21.47908 -43.11321 39003 ft 497 kts 38°
2026-04-25 00:30 21.53322 -43.06692 38997 ft 497 kts 38°
2026-04-25 00:30 21.58732 -43.02063 39000 ft 497 kts 38°
2026-04-25 00:31 21.64139 -42.97431 38999 ft 497 kts 38°
2026-04-25 00:31 21.69543 -42.92798 39001 ft 497 kts 38°
2026-04-25 00:32 21.74910 -42.88192 38999 ft 497 kts 38°
2026-04-25 00:32 21.79434 -42.84306 39005 ft 497 kts 38°
2026-04-25 00:33 21.85719 -42.78901 38998 ft 497 kts 38°
2026-04-25 00:33 21.91126 -42.74247 38999 ft 497 kts 38°
2026-04-25 00:34 21.96530 -42.69590 39000 ft 497 kts 38°
2026-04-25 00:34 22.01929 -42.64934 38997 ft 497 kts 38°
2026-04-25 00:35 22.07284 -42.60310 39005 ft 497 kts 38°
2026-04-25 00:35 22.12682 -42.55645 38998 ft 497 kts 38°
2026-04-25 00:36 22.18071 -42.50983 38999 ft 497 kts 38°
2026-04-25 00:36 22.22552 -42.47102 39000 ft 497 kts 38°
2026-04-25 00:37 22.27941 -42.42431 39003 ft 497 kts 38°
2026-04-25 00:37 22.33323 -42.37762 39004 ft 497 kts 38°
2026-04-25 00:38 22.38726 -42.33069 38998 ft 497 kts 38°
2026-04-25 00:38 22.44109 -42.28390 39006 ft 497 kts 38°
2026-04-25 00:39 22.49490 -42.23706 39004 ft 497 kts 39°
2026-04-25 00:39 22.54841 -42.19045 39004 ft 497 kts 39°
2026-04-25 00:40 22.60219 -42.14354 38997 ft 497 kts 39°
2026-04-25 00:40 22.65601 -42.09656 39004 ft 497 kts 39°
2026-04-25 00:41 22.70984 -42.04951 38999 ft 497 kts 39°
2026-04-25 00:41 22.76375 -42.00235 39006 ft 497 kts 39°
2026-04-25 00:42 22.81719 -41.95555 38997 ft 497 kts 39°
2026-04-25 00:42 22.87088 -41.90849 39000 ft 497 kts 39°
2026-04-25 00:43 22.92467 -41.86129 39005 ft 497 kts 39°
2026-04-25 00:43 22.97838 -41.81410 38999 ft 497 kts 39°
2026-04-25 00:44 23.03212 -41.76684 39002 ft 497 kts 39°
2026-04-25 00:44 23.08583 -41.71955 39002 ft 497 kts 39°
2026-04-25 00:45 23.13948 -41.67228 38999 ft 497 kts 39°
2026-04-25 00:45 23.19314 -41.62494 39000 ft 497 kts 39°
2026-04-25 00:46 23.24676 -41.57758 39002 ft 497 kts 39°
2026-04-25 00:47 23.32667 -41.50691 39000 ft 492 kts 39°
2026-04-25 00:47 23.37961 -41.46004 38999 ft 489 kts 39°
2026-04-25 00:48 23.43224 -41.41338 38997 ft 487 kts 39°
2026-04-25 00:48 23.48470 -41.36683 39004 ft 486 kts 39°
2026-04-25 00:49 23.53705 -41.32032 38999 ft 485 kts 39°
2026-04-25 00:49 23.58928 -41.27388 39004 ft 484 kts 39°
2026-04-25 00:50 23.64145 -41.22743 38998 ft 483 kts 39°
2026-04-25 00:50 23.69316 -41.18135 39003 ft 482 kts 39°
2026-04-25 00:51 23.74508 -41.13504 39006 ft 482 kts 39°
2026-04-25 00:51 23.79701 -41.08866 38996 ft 481 kts 39°
2026-04-25 00:52 23.84873 -41.04242 39003 ft 480 kts 39°
2026-04-25 00:52 23.90040 -40.99617 38997 ft 480 kts 39°
2026-04-25 00:53 23.95206 -40.94990 39003 ft 479 kts 39°
2026-04-25 00:53 24.00331 -40.90393 38997 ft 479 kts 39°
2026-04-25 00:54 24.05478 -40.85772 38998 ft 478 kts 39°
2026-04-25 00:54 24.10621 -40.81150 38998 ft 478 kts 39°
2026-04-25 00:55 24.15756 -40.76529 38997 ft 477 kts 39°
2026-04-25 00:55 24.20888 -40.71906 38999 ft 477 kts 39°
2026-04-25 00:56 24.26012 -40.67287 39004 ft 477 kts 39°
2026-04-25 00:56 24.31136 -40.62661 39006 ft 477 kts 39°
2026-04-25 00:57 24.36252 -40.58038 38997 ft 476 kts 39°
2026-04-25 00:57 24.41370 -40.53408 39000 ft 476 kts 39°
2026-04-25 00:58 24.46449 -40.48808 38999 ft 476 kts 39°
2026-04-25 00:58 24.51557 -40.44177 39004 ft 476 kts 39°
2026-04-25 00:59 24.56665 -40.39541 38998 ft 476 kts 39°
2026-04-25 00:59 24.61765 -40.34908 39008 ft 476 kts 39°
2026-04-25 01:00 24.66866 -40.30268 39001 ft 475 kts 39°
2026-04-25 01:00 24.71956 -40.25633 38999 ft 475 kts 39°
2026-04-25 01:01 24.77059 -40.20982 39000 ft 475 kts 39°
2026-04-25 01:01 24.82117 -40.16365 39001 ft 475 kts 39°
2026-04-25 01:02 24.87206 -40.11716 39003 ft 475 kts 39°
2026-04-25 01:02 24.92297 -40.07058 38997 ft 475 kts 39°
2026-04-25 01:03 24.97392 -40.02392 39000 ft 475 kts 39°
2026-04-25 01:03 25.02467 -39.97718 39004 ft 475 kts 40°
2026-04-25 01:04 25.07499 -39.92980 39000 ft 475 kts 40°
2026-04-25 01:04 25.12490 -39.88255 38997 ft 475 kts 40°
2026-04-25 01:05 25.17518 -39.83500 38997 ft 475 kts 40°
2026-04-25 01:05 25.22544 -39.78750 39002 ft 475 kts 40°
2026-04-25 01:06 25.27567 -39.73999 39004 ft 475 kts 40°
2026-04-25 01:06 25.32596 -39.69238 39003 ft 475 kts 40°
2026-04-25 01:07 25.37591 -39.64504 39000 ft 475 kts 40°
2026-04-25 01:07 25.42610 -39.59741 39004 ft 475 kts 40°
2026-04-25 01:08 25.47626 -39.54975 39011 ft 476 kts 40°
2026-04-25 01:08 25.52648 -39.50198 38997 ft 476 kts 40°
2026-04-25 01:09 25.57669 -39.45417 39007 ft 476 kts 40°
2026-04-25 01:09 25.62685 -39.40635 38999 ft 476 kts 40°
2026-04-25 01:10 25.67698 -39.35850 39000 ft 476 kts 40°
2026-04-25 01:10 25.72691 -39.31078 39005 ft 476 kts 40°
2026-04-25 01:11 25.77707 -39.26280 39001 ft 476 kts 40°
2026-04-25 01:11 25.82722 -39.21477 39000 ft 476 kts 40°
2026-04-25 01:12 25.87736 -39.16669 38998 ft 476 kts 40°
2026-04-25 01:12 25.92745 -39.11860 38999 ft 476 kts 40°
2026-04-25 01:13 25.97764 -39.07036 39006 ft 476 kts 40°
2026-04-25 01:13 26.02776 -39.02214 39002 ft 476 kts 40°
2026-04-25 01:14 26.07790 -38.97383 38998 ft 476 kts 40°
2026-04-25 01:14 26.12774 -38.92576 38999 ft 477 kts 40°
2026-04-25 01:15 26.17782 -38.87740 39005 ft 477 kts 41°
2026-04-25 01:15 26.22791 -38.82897 39003 ft 477 kts 41°
2026-04-25 01:16 26.27800 -38.78048 39003 ft 477 kts 41°
2026-04-25 01:16 26.32810 -38.73193 39001 ft 477 kts 41°
2026-04-25 01:17 26.37817 -38.68335 39006 ft 477 kts 41°
2026-04-25 01:17 26.42820 -38.63475 39001 ft 477 kts 41°
2026-04-25 01:18 26.47826 -38.58607 38997 ft 477 kts 41°
2026-04-25 01:18 26.52798 -38.53765 39000 ft 477 kts 41°
2026-04-25 01:19 26.57801 -38.48888 39005 ft 477 kts 41°
2026-04-25 01:19 26.62807 -38.44001 39004 ft 477 kts 41°
2026-04-25 01:20 26.67811 -38.39111 39005 ft 477 kts 41°
2026-04-25 01:20 26.72817 -38.34213 39005 ft 478 kts 41°
2026-04-25 01:21 26.77818 -38.29314 38998 ft 478 kts 41°
2026-04-25 01:21 26.82789 -38.24437 38998 ft 478 kts 41°
2026-04-25 01:22 26.87791 -38.19526 38999 ft 478 kts 41°
2026-04-25 01:22 26.92793 -38.14608 39004 ft 478 kts 41°
2026-04-25 01:23 26.97792 -38.09686 39001 ft 478 kts 41°
2026-04-25 01:23 27.01945 -38.05593 38998 ft 478 kts 41°
2026-04-25 01:24 27.07757 -37.99858 39005 ft 478 kts 41°
2026-04-25 01:24 27.11945 -37.95720 39000 ft 478 kts 41°
2026-04-25 01:25 27.16907 -37.90812 39005 ft 478 kts 41°
2026-04-25 01:25 27.21904 -37.85864 39001 ft 478 kts 41°
2026-04-25 01:26 27.26909 -37.80901 39005 ft 479 kts 41°
2026-04-25 01:26 27.31872 -37.75974 39000 ft 479 kts 41°
2026-04-25 01:27 27.36863 -37.71012 39000 ft 479 kts 41°
2026-04-25 01:27 27.41855 -37.66044 39004 ft 479 kts 41°
2026-04-25 01:28 27.49339 -37.58583 39001 ft 479 kts 41°
2026-04-25 01:28 27.54333 -37.53597 39005 ft 479 kts 41°
2026-04-25 01:29 27.59319 -37.48613 39003 ft 479 kts 41°
2026-04-25 01:29 27.64303 -37.43624 39001 ft 479 kts 41°
2026-04-25 01:30 27.69261 -37.38655 38998 ft 479 kts 41°
2026-04-25 01:30 27.74258 -37.33640 39000 ft 479 kts 41°
2026-04-25 01:31 27.79241 -37.28634 38999 ft 479 kts 41°
2026-04-25 01:31 27.84218 -37.23626 39001 ft 480 kts 41°
2026-04-25 01:32 27.89172 -37.18636 39006 ft 480 kts 41°
2026-04-25 01:32 27.94156 -37.13608 39002 ft 480 kts 41°
2026-04-25 01:33 27.99144 -37.08571 39000 ft 480 kts 41°
2026-04-25 01:33 28.04057 -37.03603 39005 ft 480 kts 41°
2026-04-25 01:34 28.09101 -36.98496 39005 ft 480 kts 41°
2026-04-25 01:34 28.14084 -36.93443 39000 ft 480 kts 41°
2026-04-25 01:35 28.19025 -36.88427 39000 ft 480 kts 41°
2026-04-25 01:35 28.24004 -36.83365 38998 ft 480 kts 41°
2026-04-25 01:36 28.28978 -36.78303 38999 ft 480 kts 41°
2026-04-25 01:36 28.33961 -36.73225 39005 ft 480 kts 41°
2026-04-25 01:37 28.38937 -36.68146 38998 ft 480 kts 41°
2026-04-25 01:37 28.43876 -36.63099 39001 ft 481 kts 41°
2026-04-25 01:38 28.48850 -36.58010 39001 ft 481 kts 42°
2026-04-25 01:38 28.53818 -36.52920 39000 ft 481 kts 42°
2026-04-25 01:39 28.58787 -36.47822 39005 ft 481 kts 42°
2026-04-25 01:39 28.63757 -36.42716 39005 ft 481 kts 42°
2026-04-25 01:40 28.68720 -36.37610 39005 ft 481 kts 42°
2026-04-25 01:40 28.73687 -36.32494 38999 ft 481 kts 42°
2026-04-25 01:41 28.78618 -36.27408 39002 ft 481 kts 42°
2026-04-25 01:41 28.83578 -36.22285 39004 ft 481 kts 42°
2026-04-25 01:42 28.88540 -36.17154 38998 ft 481 kts 42°
2026-04-25 01:42 28.93499 -36.12019 39001 ft 481 kts 42°
2026-04-25 01:43 28.98456 -36.06879 39002 ft 481 kts 42°
2026-04-25 01:43 29.03415 -36.01729 39001 ft 481 kts 42°
2026-04-25 01:44 29.08371 -35.96576 39000 ft 482 kts 42°
2026-04-25 01:44 29.13322 -35.91421 38997 ft 482 kts 42°
2026-04-25 01:45 29.18275 -35.86256 39001 ft 482 kts 42°
2026-04-25 01:45 29.23231 -35.81082 38998 ft 482 kts 42°
2026-04-25 01:46 29.28188 -35.75900 39003 ft 482 kts 42°
2026-04-25 01:46 29.33101 -35.70756 39003 ft 482 kts 42°
2026-04-25 01:47 29.38051 -35.65566 39002 ft 482 kts 42°
2026-04-25 01:47 29.43001 -35.60370 39005 ft 482 kts 42°
2026-04-25 01:48 29.47945 -35.55172 39001 ft 482 kts 42°
2026-04-25 01:48 29.52893 -35.49963 39000 ft 482 kts 42°
2026-04-25 01:49 29.57839 -35.44750 39000 ft 482 kts 42°
2026-04-25 01:49 29.62781 -35.39532 39001 ft 482 kts 42°
2026-04-25 01:50 29.67725 -35.34306 39006 ft 483 kts 42°
2026-04-25 01:50 29.72664 -35.29077 39000 ft 483 kts 42°
2026-04-25 01:51 29.77575 -35.23871 38999 ft 483 kts 42°
2026-04-25 01:51 29.82524 -35.18617 39002 ft 483 kts 43°
2026-04-25 01:52 29.87461 -35.13368 39003 ft 483 kts 43°
2026-04-25 01:52 29.92395 -35.08114 38999 ft 483 kts 43°
2026-04-25 01:53 29.97331 -35.02851 39002 ft 483 kts 43°
2026-04-25 01:53 30.02325 -34.97660 39001 ft 483 kts 39°
2026-04-25 01:54 30.07563 -34.92791 39003 ft 483 kts 38°
2026-04-25 01:54 30.12811 -34.88020 39000 ft 483 kts 38°
2026-04-25 01:55 30.18068 -34.83177 39011 ft 483 kts 38°
2026-04-25 01:55 30.23304 -34.78295 39003 ft 484 kts 39°
2026-04-25 01:56 30.28543 -34.73388 39002 ft 484 kts 39°
2026-04-25 01:56 30.33771 -34.68484 39002 ft 484 kts 39°
2026-04-25 01:57 30.41615 -34.61120 39003 ft 484 kts 39°
2026-04-25 01:58 30.46848 -34.56198 38998 ft 484 kts 39°
2026-04-25 01:58 30.52042 -34.51307 38998 ft 484 kts 39°
2026-04-25 01:59 30.57269 -34.46378 38999 ft 484 kts 39°
2026-04-25 01:59 30.62497 -34.41440 39006 ft 484 kts 39°
2026-04-25 02:00 30.67721 -34.36499 39002 ft 484 kts 39°
2026-04-25 02:00 30.72959 -34.31538 39010 ft 484 kts 39°
2026-04-25 02:01 30.78181 -34.26585 39000 ft 485 kts 39°
2026-04-25 02:01 30.83372 -34.21654 39000 ft 485 kts 39°
2026-04-25 02:02 30.88589 -34.16691 39005 ft 485 kts 39°
2026-04-25 02:02 30.93820 -34.11707 39002 ft 485 kts 39°
2026-04-25 02:03 30.99044 -34.06724 39004 ft 485 kts 39°
2026-04-25 02:03 31.04260 -34.01740 38998 ft 485 kts 39°
2026-04-25 02:04 31.09479 -33.96747 38999 ft 485 kts 39°
2026-04-25 02:04 31.14699 -33.91744 38998 ft 485 kts 39°
2026-04-25 02:05 31.19883 -33.86769 38997 ft 485 kts 39°
2026-04-25 02:05 31.25098 -33.81757 39002 ft 485 kts 39°
2026-04-25 02:06 31.30313 -33.76738 39005 ft 485 kts 39°
2026-04-25 02:06 31.35529 -33.71710 38998 ft 485 kts 39°
2026-04-25 02:07 31.40748 -33.66672 38997 ft 485 kts 39°
2026-04-25 02:07 31.45921 -33.61670 39008 ft 485 kts 39°
2026-04-25 02:08 31.51136 -33.56621 39008 ft 486 kts 39°
2026-04-25 02:08 31.56344 -33.51571 39002 ft 486 kts 39°
2026-04-25 02:09 31.61552 -33.46514 38999 ft 486 kts 39°
2026-04-25 02:09 31.66751 -33.41457 39005 ft 486 kts 39°
2026-04-25 02:10 31.71956 -33.36387 39002 ft 486 kts 39°
2026-04-25 02:10 31.77128 -33.31341 38999 ft 486 kts 39°
2026-04-25 02:11 31.82334 -33.26255 39009 ft 486 kts 39°
2026-04-25 02:11 31.87532 -33.21169 39001 ft 486 kts 39°
2026-04-25 02:12 31.92734 -33.16071 38997 ft 486 kts 39°
2026-04-25 02:12 31.97933 -33.10968 38998 ft 486 kts 39°
2026-04-25 02:13 32.03094 -33.05895 39001 ft 486 kts 39°
2026-04-25 02:13 32.08293 -33.00777 39005 ft 486 kts 39°
2026-04-25 02:14 32.12610 -32.96521 39000 ft 486 kts 40°
2026-04-25 02:14 32.17802 -32.91396 39006 ft 486 kts 40°
2026-04-25 02:15 32.22993 -32.86264 39002 ft 486 kts 40°
2026-04-25 02:15 32.28179 -32.81128 38998 ft 487 kts 40°
2026-04-25 02:16 32.33372 -32.75977 39005 ft 487 kts 40°
2026-04-25 02:16 32.38527 -32.70857 38998 ft 487 kts 40°
2026-04-25 02:17 32.43709 -32.65701 39006 ft 487 kts 40°
2026-04-25 02:17 32.48896 -32.60533 38998 ft 487 kts 40°
2026-04-25 02:18 32.54088 -32.55352 38998 ft 487 kts 40°
2026-04-25 02:18 32.59274 -32.50168 39000 ft 487 kts 40°
2026-04-25 02:19 32.64451 -32.44985 38998 ft 487 kts 40°
2026-04-25 02:19 32.69631 -32.39791 39001 ft 487 kts 40°
2026-04-25 02:20 32.74807 -32.34593 39001 ft 487 kts 40°
2026-04-25 02:20 32.79959 -32.29411 39000 ft 488 kts 40°
2026-04-25 02:21 32.85135 -32.24197 38998 ft 488 kts 40°
2026-04-25 02:21 32.90314 -32.18970 38998 ft 488 kts 40°
2026-04-25 02:22 32.95483 -32.13747 39001 ft 488 kts 40°
2026-04-25 02:22 33.00661 -32.08505 39000 ft 488 kts 40°
2026-04-25 02:23 33.05832 -32.03263 39005 ft 488 kts 40°
2026-04-25 02:23 33.10971 -31.98044 39005 ft 488 kts 40°
2026-04-25 02:24 33.16136 -31.92790 38999 ft 488 kts 40°
2026-04-25 02:24 33.21308 -31.87522 39001 ft 488 kts 40°
2026-04-25 02:25 33.26474 -31.82250 38998 ft 488 kts 40°
2026-04-25 02:25 33.31652 -31.76959 38998 ft 488 kts 40°
2026-04-25 02:26 33.36813 -31.71675 39000 ft 488 kts 40°
2026-04-25 02:26 33.41978 -31.66379 39011 ft 488 kts 40°
2026-04-25 02:27 33.47103 -31.61116 38998 ft 488 kts 40°
2026-04-25 02:27 33.52263 -31.55808 39000 ft 489 kts 40°
2026-04-25 02:28 33.57422 -31.50492 38998 ft 489 kts 40°
2026-04-25 02:28 33.62580 -31.45169 39001 ft 489 kts 40°
2026-04-25 02:29 33.67732 -31.39843 39002 ft 489 kts 40°
2026-04-25 02:29 33.72884 -31.34508 39005 ft 489 kts 40°
2026-04-25 02:30 33.78033 -31.29167 39000 ft 489 kts 40°
2026-04-25 02:30 33.83150 -31.23853 39000 ft 489 kts 40°
2026-04-25 02:31 33.88296 -31.18497 39001 ft 489 kts 40°
2026-04-25 02:31 33.93447 -31.13128 39001 ft 489 kts 40°
2026-04-25 02:32 33.98593 -31.07756 39006 ft 489 kts 40°
2026-04-25 02:32 34.03735 -31.02378 39000 ft 489 kts 41°
2026-04-25 02:33 34.08877 -30.96992 39000 ft 489 kts 41°
2026-04-25 02:33 34.14011 -30.91605 39001 ft 489 kts 41°
2026-04-25 02:34 34.19114 -30.86242 39001 ft 489 kts 41°
2026-04-25 02:34 34.24250 -30.80834 39000 ft 489 kts 41°
2026-04-25 02:35 34.29379 -30.75426 38998 ft 489 kts 41°
2026-04-25 02:35 34.34505 -30.70011 38998 ft 489 kts 41°
2026-04-25 02:36 34.39631 -30.64587 39006 ft 490 kts 41°
2026-04-25 02:36 34.44767 -30.59143 39006 ft 490 kts 41°
2026-04-25 02:37 34.49893 -30.53701 38998 ft 490 kts 41°
2026-04-25 02:37 34.55014 -30.48254 39004 ft 490 kts 41°
2026-04-25 02:38 34.60137 -30.42796 38998 ft 490 kts 41°
2026-04-25 02:38 34.65253 -30.37336 39005 ft 490 kts 41°
2026-04-25 02:39 34.70374 -30.31862 38998 ft 490 kts 41°
2026-04-25 02:39 34.75459 -30.26417 39006 ft 490 kts 41°
2026-04-25 02:40 34.80575 -30.20929 39002 ft 490 kts 41°
2026-04-25 02:40 34.85688 -30.15434 39003 ft 490 kts 41°
2026-04-25 02:41 34.90809 -30.09921 39000 ft 490 kts 41°
2026-04-25 02:41 34.95915 -30.04414 39007 ft 490 kts 41°
2026-04-25 02:42 35.00976 -29.98915 39004 ft 490 kts 43°
2026-04-25 02:42 35.05837 -29.93067 39009 ft 490 kts 45°
2026-04-25 02:43 35.10585 -29.87091 39000 ft 490 kts 46°
2026-04-25 02:43 35.15358 -29.81116 39001 ft 490 kts 45°
2026-04-25 02:44 35.20146 -29.75176 39000 ft 490 kts 45°
2026-04-25 02:44 35.24919 -29.69272 39000 ft 490 kts 45°
2026-04-25 02:45 35.29715 -29.63332 39006 ft 491 kts 45°
2026-04-25 02:45 35.34507 -29.57382 39001 ft 491 kts 45°
2026-04-25 02:46 35.39296 -29.51423 38999 ft 491 kts 45°
2026-04-25 02:46 35.44085 -29.45452 39000 ft 491 kts 45°
2026-04-25 02:47 35.48872 -29.39474 39001 ft 491 kts 45°
2026-04-25 02:47 35.53654 -29.33491 39000 ft 491 kts 45°
2026-04-25 02:48 35.58433 -29.27500 39000 ft 491 kts 45°
2026-04-25 02:48 35.63224 -29.21485 39000 ft 491 kts 45°
2026-04-25 02:49 35.68003 -29.15473 39001 ft 491 kts 45°
2026-04-25 02:49 35.72753 -29.09487 39003 ft 491 kts 45°
2026-04-25 02:50 35.77527 -29.03459 38998 ft 492 kts 45°
2026-04-25 02:50 35.82300 -28.97422 39005 ft 492 kts 45°
2026-04-25 02:51 35.87072 -28.91375 39001 ft 492 kts 45°
2026-04-25 02:51 35.91843 -28.85318 39002 ft 492 kts 46°
2026-04-25 02:52 35.96605 -28.79262 39006 ft 492 kts 46°
2026-04-25 02:52 36.01338 -28.73231 39005 ft 492 kts 46°
2026-04-25 02:53 36.06103 -28.67147 39002 ft 492 kts 46°
2026-04-25 02:53 36.10866 -28.61055 38998 ft 492 kts 46°
2026-04-25 02:54 36.15621 -28.54963 39000 ft 492 kts 46°
2026-04-25 02:54 36.20349 -28.48894 38998 ft 492 kts 46°
2026-04-25 02:55 36.25104 -28.42778 39005 ft 492 kts 46°
2026-04-25 02:55 36.29853 -28.36659 39006 ft 492 kts 46°
2026-04-25 02:56 36.34603 -28.30527 39001 ft 492 kts 46°
2026-04-25 02:56 36.39347 -28.24392 38998 ft 492 kts 46°
2026-04-25 02:57 36.44056 -28.18289 38998 ft 492 kts 46°
2026-04-25 02:57 36.48797 -28.12135 38998 ft 492 kts 46°
2026-04-25 02:58 36.53535 -28.05972 39002 ft 493 kts 46°
2026-04-25 02:58 36.58267 -27.99805 39002 ft 493 kts 46°
2026-04-25 02:59 36.63008 -27.93615 38998 ft 493 kts 46°
2026-04-25 02:59 36.67709 -27.87466 39002 ft 493 kts 46°
2026-04-25 03:00 36.72430 -27.81278 39001 ft 493 kts 46°
2026-04-25 03:00 36.77151 -27.75079 39005 ft 493 kts 46°
2026-04-25 03:01 36.81874 -27.68866 39006 ft 493 kts 46°
2026-04-25 03:01 36.85798 -27.63694 39000 ft 493 kts 46°